| time (UTC) | temp F | wind direction | speed knots | gust knots | rain 1hr in | rain 24hr in | rain mn in | humidity % | barometer mb |
| 20260905140038 | 76 | 313 | 0.0 | 1.7 | 0.00 | 0.00 | 0.00 | 88 | 1010.6 |
| 20260905134536 | 75 | 312 | 0.0 | 2.6 | 0.00 | 0.00 | 0.00 | 90 | 1010.3 |
| 20260905133036 | 74 | 312 | 0.0 | 4.3 | 0.00 | 0.00 | 0.00 | 92 | 1010.1 |
| 20260905131528 | 73 | 74 | 0.0 | 1.7 | 0.00 | 0.00 | 0.00 | 92 | 1010.2 |
| 20260905130023 | 72 | 76 | 0.0 | 0.0 | 0.00 | 0.00 | 0.00 | 92 | 1010.1 |
| 20260905124520 | 72 | 76 | 0.0 | 0.0 | 0.00 | 0.00 | 0.00 | 92 | 1010.1 |
| 20260905123019 | 71 | 76 | 0.0 | 0.0 | 0.00 | 0.00 | 0.00 | 92 | 1010.1 |
| 20260905121518 | 70 | 76 | 0.0 | 0.0 | 0.00 | 0.00 | 0.00 | 92 | 1010.2 |
| 20260905120017 | 70 | 76 | 0.0 | 0.0 | 0.00 | 0.00 | 0.00 | 92 | 1010.2 |
| 20260905114516 | 69 | 76 | 0.0 | 0.0 | 0.00 | 0.01 | 0.00 | 92 | 1009.8 |
| 20260905113013 | 69 | 76 | 0.0 | 0.0 | 0.00 | 0.01 | 0.00 | 92 | 1009.9 |
| 20260905111511 | 69 | 76 | 0.0 | 0.0 | 0.00 | 0.01 | 0.00 | 92 | 1009.9 |
| 20260905110011 | 69 | 76 | 0.0 | 0.0 | 0.00 | 0.01 | 0.00 | 92 | 1009.3 |
| 20260905104510 | 69 | 76 | 0.0 | 0.0 | 0.00 | 0.01 | 0.00 | 92 | 1009.3 |
| 20260905103009 | 70 | 76 | 0.0 | 0.0 | 0.00 | 0.01 | 0.00 | 92 | 1009.3 |
| 20260905101508 | 70 | 76 | 0.0 | 0.0 | 0.00 | 0.01 | 0.00 | 92 | 1009.0 |
| 20260905100007 | 70 | 76 | 0.0 | 0.0 | 0.00 | 0.01 | 0.00 | 92 | 1009.0 |
| 20260905094508 | 70 | 76 | 0.0 | 0.0 | 0.00 | 0.01 | 0.00 | 91 | 1008.6 |
| 20260905093004 | 70 | 76 | 0.0 | 0.0 | 0.00 | 0.01 | 0.00 | 91 | 1008.5 |
| 20260905091505 | 70 | 76 | 0.0 | 0.0 | 0.00 | 0.01 | 0.00 | 91 | 1008.4 |
| 20260905090007 | 70 | 76 | 0.0 | 0.0 | 0.00 | 0.01 | 0.00 | 91 | 1008.5 |
| 20260905084502 | 70 | 76 | 0.0 | 0.0 | 0.00 | 0.01 | 0.00 | 91 | 1008.7 |
| 20260905083122 | 70 | 76 | 0.0 | 0.9 | 0.00 | 0.01 | 0.00 | 91 | 1008.8 |
| 20260905081605 | 71 | 76 | 0.0 | 0.0 | 0.00 | 0.01 | 0.00 | 91 | 1009.0 |
| 20260905080057 | 71 | 76 | 0.0 | 0.0 | 0.00 | 0.01 | 0.00 | 90 | 1009.2 |
| 20260905074556 | 71 | 76 | 0.0 | 0.9 | 0.00 | 0.01 | 0.00 | 90 | 1009.3 |
| 20260905073058 | 71 | 76 | 0.0 | 0.9 | 0.00 | 0.01 | 0.00 | 90 | 1009.3 |
| 20260905071556 | 71 | 76 | 0.0 | 0.0 | 0.00 | 0.01 | 0.00 | 90 | 1009.4 |
| 20260905070054 | 71 | 76 | 0.0 | 0.9 | 0.00 | 0.01 | 0.00 | 90 | 1009.6 |
| 20260905064610 | 71 | 76 | 0.0 | 0.0 | 0.00 | 0.01 | 0.00 | 90 | 1009.8 |
| 20260905063052 | 71 | 76 | 0.0 | 0.9 | 0.00 | 0.01 | 0.00 | 90 | 1010.2 |
| 20260905061548 | 71 | 76 | 0.0 | 0.9 | 0.00 | 0.01 | 0.00 | 90 | 1010.4 |
| 20260905060047 | 71 | 76 | 0.0 | 0.9 | 0.00 | 0.01 | 0.00 | 90 | 1010.5 |
| 20260905054622 | 71 | 76 | 0.0 | 0.9 | 0.00 | 0.16 | 0.00 | 90 | 1010.6 |
| 20260905053045 | 72 | 76 | 0.0 | 0.0 | 0.00 | 0.16 | 0.00 | 89 | 1010.7 |
| 20260905051541 | 72 | 76 | 0.0 | 0.9 | 0.00 | 0.16 | 0.00 | 89 | 1010.9 |
| 20260905050038 | 72 | 76 | 0.0 | 0.0 | 0.00 | 0.16 | 0.00 | 89 | 1011.1 |
| 20260905044537 | 72 | 69 | 0.0 | 0.9 | 0.00 | 0.16 | 0.16 | 89 | 1011.1 |
| 20260905043036 | 72 | 69 | 0.0 | 0.9 | 0.00 | 0.16 | 0.16 | 89 | 1011.2 |
| 20260905041539 | 72 | 69 | 0.0 | 0.9 | 0.00 | 0.16 | 0.16 | 88 | 1011.3 |
| 20260905040038 | 72 | 69 | 0.0 | 0.0 | 0.00 | 0.16 | 0.16 | 88 | 1011.4 |
| 20260905034535 | 72 | 69 | 0.0 | 0.0 | 0.00 | 0.16 | 0.16 | 88 | 1011.5 |
| 20260905033039 | 73 | 69 | 0.0 | 0.0 | 0.00 | 0.16 | 0.16 | 88 | 1011.3 |
| 20260905031536 | 73 | 69 | 0.0 | 0.0 | 0.00 | 0.16 | 0.16 | 88 | 1011.3 |
| 20260905030036 | 73 | 69 | 0.0 | 0.0 | 0.00 | 0.16 | 0.16 | 87 | 1011.4 |
| 20260905024535 | 73 | 69 | 0.0 | 0.0 | 0.00 | 0.16 | 0.16 | 87 | 1011.3 |
| 20260905023031 | 73 | 69 | 0.0 | 0.0 | 0.00 | 0.16 | 0.16 | 87 | 1011.5 |
| 20260905021532 | 74 | 69 | 0.0 | 0.0 | 0.00 | 0.16 | 0.16 | 86 | 1011.2 |
| 20260905020032 | 74 | 69 | 0.0 | 0.0 | 0.00 | 0.16 | 0.16 | 86 | 1011.2 |
| 20260905014531 | 74 | 69 | 0.0 | 0.0 | 0.00 | 0.16 | 0.16 | 85 | 1011.0 |
| 20260905013030 | 74 | 69 | 0.0 | 0.0 | 0.00 | 0.16 | 0.16 | 85 | 1011.0 |
| 20260905011530 | 74 | 69 | 0.0 | 0.0 | 0.00 | 0.16 | 0.16 | 84 | 1010.8 |
| 20260905010037 | 75 | 69 | 0.0 | 0.0 | 0.00 | 0.16 | 0.16 | 84 | 1010.5 |
| 20260905004529 | 75 | 69 | 0.0 | 0.0 | 0.00 | 0.16 | 0.16 | 84 | 1010.2 |
| 20260905003028 | 75 | 69 | 0.0 | 0.0 | 0.00 | 0.16 | 0.16 | 84 | 1010.1 |
| 20260905001529 | 75 | 69 | 0.0 | 0.9 | 0.00 | 0.16 | 0.16 | 83 | 1010.1 |
| 20260905000033 | 76 | 69 | 0.0 | 0.0 | 0.00 | 0.16 | 0.16 | 82 | 1010.6 |
| 20260904234528 | 76 | 69 | 0.0 | 0.9 | 0.00 | 0.16 | 0.16 | 82 | 1010.8 |
| 20260904233026 | 77 | 69 | 0.0 | 0.9 | 0.00 | 0.16 | 0.16 | 81 | 1010.6 |
| 20260904231526 | 77 | 70 | 0.0 | 0.0 | 0.00 | 0.16 | 0.16 | 81 | 1010.4 |
| 20260904230026 | 78 | 70 | 0.0 | 0.0 | 0.00 | 0.16 | 0.16 | 79 | 1009.8 |
| 20260904224525 | 78 | 69 | 0.0 | 0.0 | 0.00 | 0.16 | 0.16 | 79 | 1010.1 |
| 20260904223025 | 79 | 70 | 0.0 | 0.9 | 0.00 | 0.16 | 0.16 | 78 | 1010.3 |
| 20260904221524 | 81 | 69 | 0.0 | 0.0 | 0.00 | 0.16 | 0.16 | 75 | 1010.4 |
| 20260904220024 | 83 | 69 | 0.0 | 7.8 | 0.00 | 0.16 | 0.16 | 71 | 1010.8 |
| 20260904214524 | 84 | 40 | 0.0 | 3.5 | 0.00 | 0.16 | 0.16 | 69 | 1012.0 |
| 20260904213023 | 85 | 17 | 0.0 | 1.7 | 0.00 | 0.16 | 0.16 | 66 | 1011.5 |
| 20260904211522 | 85 | 17 | 0.0 | 3.5 | 0.00 | 0.16 | 0.16 | 67 | 1010.9 |
| 20260904210024 | 86 | 10 | 0.0 | 0.0 | 0.00 | 0.16 | 0.16 | 67 | 1010.5 |
| 20260904204522 | 87 | 10 | 0.0 | 0.0 | 0.00 | 0.16 | 0.16 | 67 | 1010.3 |
| 20260904203022 | 87 | 10 | 0.0 | 0.0 | 0.00 | 0.16 | 0.16 | 64 | 1010.6 |
| 20260904201520 | 88 | 10 | 0.0 | 1.7 | 0.00 | 0.16 | 0.16 | 61 | 1010.4 |
| 20260904200020 | 88 | 10 | 0.0 | 0.9 | 0.00 | 0.16 | 0.16 | 62 | 1009.7 |
| 20260904194515 | 89 | 10 | 0.0 | 0.9 | 0.00 | 0.16 | 0.16 | 59 | 1010.5 |
| 20260904193015 | 90 | 10 | 0.0 | 2.6 | 0.00 | 0.16 | 0.16 | 55 | 1010.7 |
| 20260904191513 | 91 | 10 | 0.0 | 2.6 | 0.00 | 0.16 | 0.16 | 53 | 1010.8 |
| 20260904190011 | 91 | 9 | 0.0 | 1.7 | 0.00 | 0.16 | 0.16 | 54 | 1010.7 |
| 20260904184512 | 91 | 5 | 0.0 | 5.2 | 0.00 | 0.16 | 0.16 | 54 | 1011.0 |
| 20260904183007 | 90 | 5 | 0.0 | 2.6 | 0.00 | 0.16 | 0.16 | 53 | 1011.4 |
| 20260904181506 | 90 | 19 | 0.0 | 3.5 | 0.00 | 0.16 | 0.16 | 52 | 1011.6 |
| 20260904180006 | 90 | 5 | 0.0 | 2.6 | 0.00 | 0.16 | 0.16 | 52 | 1011.8 |
| 20260904174504 | 89 | 360 | 0.0 | 5.2 | 0.00 | 0.16 | 0.16 | 53 | 1011.9 |
| 20260904173003 | 88 | 29 | 0.0 | 4.3 | 0.00 | 0.16 | 0.16 | 55 | 1012.1 |
| 20260904171504 | 90 | 28 | 0.0 | 3.5 | 0.00 | 0.16 | 0.16 | 55 | 1012.1 |
| 20260904170100 | 88 | 30 | 0.0 | 2.6 | 0.00 | 0.16 | 0.16 | 54 | 1012.2 |
| 20260904164600 | 88 | 11 | 0.0 | 2.6 | 0.00 | 0.16 | 0.16 | 57 | 1012.5 |
| 20260904163058 | 88 | 28 | 1.7 | 7.8 | 0.00 | 0.16 | 0.16 | 54 | 1012.4 |
| 20260904161602 | 87 | 37 | 0.0 | 5.2 | 0.00 | 0.16 | 0.16 | 56 | 1012.7 |
| 20260904160053 | 87 | 9 | 0.0 | 3.5 | 0.00 | 0.16 | 0.16 | 58 | 1012.6 |
| 20260904154547 | 86 | 26 | 0.0 | 7.0 | 0.00 | 0.16 | 0.16 | 61 | 1012.7 |
| 20260904153043 | 84 | 48 | 0.0 | 4.3 | 0.00 | 0.16 | 0.16 | 62 | 1012.8 |
| 20260904151539 | 80 | 24 | 0.0 | 2.6 | 0.00 | 0.16 | 0.16 | 85 | 1012.9 |
| 20260904150035 | 79 | 24 | 0.0 | 0.9 | 0.00 | 0.16 | 0.16 | 89 | 1012.9 |
| 20260904144533 | 78 | 23 | 0.0 | 3.5 | 0.00 | 0.16 | 0.16 | 92 | 1013.0 |
| 20260904143035 | 77 | 33 | 0.0 | 0.9 | 0.00 | 0.16 | 0.16 | 93 | 1013.0 |
| 20260904141529 | 76 | 33 | 0.0 | 1.7 | 0.00 | 0.16 | 0.16 | 94 | 1012.9 |